Regional Weather Roundup
Issued by NWS Midland/Odessa, TX

Skip options and go directly to product.
Home | Oldest Version | Next Version | Current Version | All | Text Only | Save Text | Print | Product List | Glossary On

Skip product version selection by date and time.   
229
ASUS44 KMAF 300902
RWRMAF
MIDLAND AREA WEATHER ROUNDUP
NATIONAL WEATHER SERVICE MIDLAND TX
400 AM CDT WED JUL 30 2014

...IN SOUTHWEST TEXAS AND SOUTHEAST NEW MEXICO...

CITY           SKY/WX    TMP DP  RH WIND       PRES   REMARKS
ALPINE         CLEAR     76  48  36 S10       30.20R
ANDREWS        FAIR      71  62  72 SE3       30.07S
ARTESIA        MOCLDY    73  61  64 S8        30.05F
BIG SPRING     PTCLDY    78  64  62 SE12      30.06F
CARLSBAD       CLOUDY    78  49  35 E6        30.03F
DRYDEN           N/A     84  52  33 E8        30.01F
FORT STOCKTON  CLEAR     79  52  38 S15G23    30.04S
GUAD PASS      MOCLDY    73  51  46 NE5       30.21S
HOBBS          CLOUDY    68  61  77 SE6       30.09F
MARFA          CLEAR     63  50  63 CALM      30.20S
MIDLAND AIRPK  PTCLDY    78  59  52 SE8       30.05F
MIDLAND INTL   PTCLDY    76  54  46 SE8       30.04F
ODESSA           N/A     80  51  36 S12       30.06F
PECOS          PTCLDY    79  49  33 SE7       30.00S
PRESIDIO       FAIR      83  50  31 NE5       30.03R
SEMINOLE       MOCLDY    69  63  81 CALM      30.08F
SNYDER         PTCLDY    72  66  82 S9        30.04S
WINK           PTCLDY    81  52  36 SE10      30.01F
$$
...OTHER STATIONS IN TEXAS...

CITY           SKY/WX    TMP DP  RH WIND       PRES   REMARKS
ABILENE        PTCLDY    75  68  78 S12       30.03F
AMARILLO       CLOUDY    67  62  84 SE10      30.09F
AUSTIN         PTCLDY    73  69  87 SE5       30.03F
BROWNSVILLE    PTCLDY    76  74  93 E3        30.04S
CORPUS CHRISTI PTCLDY    74  71  91 S5        30.02S
DALLAS FTW     MOCLDY    76  65  68 SE6       30.02S
DEL RIO        CLEAR     82  65  56 SE8       29.99S
EL PASO        PTCLDY    77  67  71 N3        30.06F
HOUSTON INT    PTCLDY    74  72  93 CALM      30.04S
LUBBOCK        CLOUDY    71  64  78 S12       30.07F
SAN ANGELO     PTCLDY    78  67  68 S10       30.03S
SAN ANTONIO    PTCLDY    77  71  82 S7        30.05F
WACO           PTCLDY    75  69  81 SE9       30.04S
WICHITA FALLS  NOT AVBL
$$
...OTHER LOCATIONS IN NEW MEXICO...

CITY           SKY/WX    TMP DP  RH WIND       PRES   REMARKS
ALAMAGORDO     PTCLDY    70  63  78 SE3       30.10F
ALBUQUERQUE    MOCLDY    68  61  78 NE12      30.21S
CANNON AFB     CLEAR     66  64  94 S5        30.13S
CLOVIS         NOT AVBL
HOLLOMAN AFB   CLEAR     72  64  78 SW6       30.07F
ROSWELL        PTCLDY    72  67  84 SW5       30.06F
RUIDOSO        PTCLDY    61  55  82 N6        30.30F
SANTA FE       MOCLDY    61  58  90 N5        30.28R
TRUTH OR CONSE CLEAR     68  63  84 CALM      30.14F
TUCUMCARI      MOCLDY    69  64  84 S3        30.08F
$$

USA.gov is the U.S. government's official web portal to all federal, state and local government web resources and services.